STARLINK-32479, 62148

Orbit data source: Space-Track

STARLINK-32479, 62148 is a payload satellite owned by SpaceX/Seattle (US) in LEO that was launched on Sat, 30 Nov 2024 UTC via an FALCON 9 launch vehicle from the Air Force Eastern Test Range (AFETR). Payload-class satellites include a variety of spacecraft equipped with specific instruments for various scientific and technological missions. These include communications satellites like Starlink; space stations such as the ISS; scientific satellites like the Hubble; Earth observation satellites from companies like Planet Labs, Umbra, and HawkEye 360; GPS; miniature CubeSats for education and research; and military/defense satellites.

Loading next visibility...
Identifier
62148, 2024-224K
Orbit
LEO
Country
Flag of USUS
Related business
Manufacturer
SpaceX/Seattle
Mission
Operational Commercial Communications
Bus & Motor
STARLINK V2M, Unknown motor
Mass
730 kg wet, ~700 kg dry
Launch date (UTC)
2024-11-30 (1 year ago)
Launch vehicle
FALCON 9
Launch site
Air Force Eastern Test Range (AFETR)
Object type
Payload
Rocket body
Debris
Shape & HBR
Box + 2 Pan, 17.7 m
Radar Cross Section
33.884 m², Large (>1 m²)

Expand to show TLE details & history
Last TLE update: 20 hours ago

TLE from 20 hours ago
0 STARLINK-32479
1 62148U 24224K   25348.84012639  .00019146  00000-0  70347-3 0  9995
2 62148  43.0005 277.2693 0001307 248.5016 111.5696 15.27579651 59447
Epoch: 2025-12-14T20:09Z
TLE epoch observation values (Epoch: 2025-12-14T20:09:46.920Z)
Latitude
-0.00003°
Longitude
-108.9235°
Altitude
483.155 km
Speed
7.625 km/s
True Right ascension
18h 29m 04s
True Declination
0° 00' 00"
Sunlit
Object was in daylight at epoch
Visualization orbit readout
Latitude
Unknown
Longitude
Unknown
Altitude
Unknown
Speed
Unknown
Apparent Right ascension
Unknown
Apparent Declination
Unknown
Sunlit
N/A
Visualization observer readout
Local Sidereal Time
15:12:32
Azimuth
Unknown
Elevation
Unknown
Doppler factor
Unknown
Orbital elements
Apogee altitude
485.892 km
Perigee altitude
484.098 km
Semi-major axis
6,863.132 km
Eccentricity
0.00013
Inclination
43.0005°
RAAN
277.2693°
Arg. of periapsis
248.5016°
True anomaly
111.58353°
Mean anomaly
111.5696°
Eccentric anomaly
111.57656°
Mean motion
3.81733 °/min
Orbital period
94.31 mins
BSTAR
0.00070347
Loading maneuver chart data...
Computing Atmospheric mass density...
Loading historical data...
Loading historical data...
Loading historical data...
Loading historical data...
Loading historical data...
Loading historical data...
Loading historical data...

Documentation

Showing up to 5 results
|